Hlavní strana
METAR-TAF:

METAR-TAF

Letiště :

Shelbyville Municipal Airport

Shelbyville, Indiana, Spojené státy americké

zeměpisná šířka: 39-35-08N, zeměpisná délka: 085-48-00W, výška: 245 m

Aktuální stav počasí

Zpráva byla vytvořena před 1 hodinou a 8 minutami, v 09:53 UTC
Západní vítr 12 kt s nárazy do 20 kt
Teplota -1°C
Vlhkost vzduchu 69%
Tlak 1015 hPa
Viditelnost: 16.1 km
Zataženo ve výšce 1700 ft

METAR: KGEZ 100953Z AUTO 26012G20KT 10SM OVC017 M01/M06 A2996 RMK AO2 SLP149 T10111056

Čas: 06:01 (11:01 UTC)


TAF: chybějící

Stav a předpovědi počasí z více než 4 000 letišť (zprávy METAR a TAF).

Červené a žluté tečky na mapě představují dostupné meteorologické stanice.

Když kurzor umístíte na tečku, zobrazí se název stanice.

Pak kliknutím zobrazíte stav a předpověď počasí.

Chcete-li změnit mapu, kliknutím na zelené tlačítko se znaménkem +mapu přiblížíte, kliknutím na zelené tlačítko se znaménkem – mapu oddálíte a kliknutím na zelené šipky přejdete na sousední mapy.


METAR-TAF: